[[{"header":{"parameterUnit":"m.s-1","parameterCategory":1,"la1":30.2991,"la2":30.254,"lo1":-89.0895,"lo2":-89.0444,"dy":0.0017,"dx":0.0017,"nx":28,"ny":28,"refTime":"2024-08-08T03:00:00:Z","depth":0,"parameterNumber":2,"parameterNumberName":"U-component_of_WINDS"},"data":[0,0,0,0,0,0,0,0,0,0,0,0,0,0,0,0,0,0,0,0,0,0,0,0,0,0,0,0,0,0,0,0,0,0,0,0,0,0,0,0,0,0,0,0,0,0,0,0,0,0,0,0,0,0,0,0,0,0,1.3748,1.375,0,1.399,1.3993,1.3996,1.4005,1.4002,1.3999,1.3996,1.4254,1.4263,1.4272,0,0,0,0,0,0,0,0,0,0,0,0,0,1.3299,1.3307,1.3748,1.3751,1.3754,1.399,1.3993,1.3997,1.4005,1.4002,1.3998,1.3995,1.425,1.4262,1.4273,0,0,0,0,0,0,0,0,0,0,0,0,0,1.3513,1.331,1.3747,1.3786,1.3792,1.3989,1.3993,1.3997,1.4006,1.4002,1.3997,1.3993,1.4247,1.4261,1.4275,1.4452,0,0,1.4319,1.4325,0,0,0,0,0,0,0,0,1.3501,1.353,1.3777,1.3784,1.3791,1.3962,1.3929,1.415,1.4007,1.3925,1.3996,1.3991,1.4161,1.4182,1.4238,1.4464,1.4475,1.432,1.4329,1.4335,1.4339,0,0,0,0,0,0,0,1.3486,1.3519,1.3844,1.3781,1.3789,1.3794,1.382,1.3971,1.4065,1.3932,1.3933,1.3961,1.4164,1.4224,1.4244,1.4479,1.432,1.4333,1.4341,1.4347,1.4861,1.4866,0,0,0,0,0,0,1.3463,1.3507,1.3836,1.3851,1.3632,1.3806,1.3834,1.3912,1.4063,1.4082,1.3965,1.3961,1.4201,1.4227,1.4253,1.4469,1.4335,1.4348,1.4357,1.4856,1.4863,1.4868,0,0,0,0,0,0,1.3453,1.3492,1.3826,1.3679,1.3722,1.3818,1.3905,1.3919,1.3979,1.4088,1.4106,1.4008,1.4199,1.4233,1.4401,1.4478,1.4355,1.4368,1.4851,1.4858,1.4865,1.4903,0,0,0,0,0,0,1.344,1.3488,1.3555,1.3681,1.373,1.3969,1.391,1.3927,1.4003,1.4,1.4133,1.4152,1.4198,1.438,1.4416,1.4496,1.4379,1.4844,1.4854,1.4863,1.4896,1.4911,1.4924,0,0,0,0,0,1.3424,1.3558,1.3558,1.3598,1.3815,1.3973,1.4002,1.405,1.4009,1.4078,1.4147,1.4147,1.4464,1.4397,1.4438,1.4523,1.484,1.4851,1.4862,1.4889,1.4908,1.4924,0,0,0,0,0,0,1.3443,1.3576,1.3577,1.3756,1.3852,1.3974,1.4063,1.4069,1.4182,1.4175,1.4232,1.4263,1.443,1.4494,1.4417,1.4702,1.4647,1.4667,1.4654,1.4673,1.4687,1.4668,1.4391,0,0,0,0,0,1.3467,1.3582,1.3693,1.384,1.3888,1.3967,1.4038,1.4066,1.417,1.4212,1.4294,1.4398,1.452,1.46,1.4719,1.4904,1.4934,1.4983,1.4998,1.5009,1.5026,1.5127,1.515,1.4905,1.4905,1.4905,0,0,1.352,1.3606,1.3676,1.3846,1.3924,1.4043,1.4002,1.413,1.422,1.4233,1.4396,1.446,1.4579,1.4756,1.4839,1.4815,1.51,1.5023,1.5031,1.5042,1.5141,1.5165,1.5185,1.4913,1.4911,1.491,0,0,1.3676,1.3753,1.3883,1.3962,1.408,1.4131,1.4162,1.4283,1.4324,1.4488,1.45,1.4609,1.4819,1.4903,1.4973,1.5159,1.5163,1.5196,1.5272,1.537,1.539,1.5407,1.5473,1.5496,1.5212,1.5213,1.5213,0,1.3728,1.3905,1.395,1.4078,1.4152,1.4165,1.4298,1.4374,1.4526,1.4578,1.4548,1.481,1.4891,1.5088,1.5132,1.5189,1.5227,1.5181,1.5383,1.5401,1.5418,1.5481,1.5506,1.5216,1.5215,1.5215,1.5215,0,1.3962,1.4086,1.4177,1.4319,1.4404,1.4534,1.46,1.4681,1.4702,1.4756,1.4923,1.5021,1.5159,1.5207,1.5231,1.5408,1.5388,1.537,1.5317,1.5443,1.5504,1.5529,1.522,1.5219,1.5218,1.5217,0,0,1.4139,1.4302,1.4335,1.4399,1.4529,1.4627,1.4758,1.4889,1.4957,1.5062,1.5173,1.5349,1.5332,1.5412,1.5444,1.553,1.567,1.5502,1.5505,1.5529,1.587,1.5883,1.591,1.5673,1.5678,1.5682,1.586,0,1.431,1.4539,1.4582,1.4783,1.4897,1.491,1.5024,1.5117,1.5172,1.5279,1.534,1.5463,1.5432,1.5479,1.5565,1.5635,1.5739,1.5623,1.5779,1.5784,1.5748,1.5942,1.5956,1.612,1.5884,1.5888,1.5891,0,1.4539,1.4645,1.4856,1.4968,1.5018,1.512,1.5243,1.5344,1.545,1.5484,1.5571,1.5593,1.5731,1.567,1.5861,1.578,1.5847,1.5891,1.5898,1.5915,1.5845,1.5963,1.6173,1.6197,1.5929,1.5926,1.5923,0,1.4646,1.4842,1.4992,1.5047,1.5183,1.5253,1.5314,1.5415,1.5491,1.56,1.565,1.5774,1.5843,1.5939,1.5995,1.5945,1.6181,1.6126,1.6214,1.6213,1.6264,1.626,1.6486,1.6307,1.6306,1.6306,1.6305,0,1.4831,1.496,1.5041,1.5135,1.5279,1.5328,1.547,1.553,1.562,1.5726,1.5746,1.5846,1.5913,1.6023,1.6067,1.6218,1.625,1.6281,1.6292,1.6279,1.6275,1.6324,1.6314,1.6313,1.6311,1.631,1.6309,0,1.4975,1.5035,1.52,1.5314,1.5345,1.5447,1.5545,1.5637,1.569,1.5824,1.5858,1.5943,1.6073,1.6137,1.63,1.633,1.65,1.6504,1.6463,1.6467,1.6552,1.6542,1.6818,1.6856,1.6651,1.6653,1.6655,0,1.5089,1.5188,1.5311,1.5381,1.5442,1.5557,1.5633,1.5686,1.5765,1.5891,1.5968,1.6098,1.6204,1.6411,1.6489,1.6613,1.6619,1.6707,1.6639,1.6622,1.662,1.6613,1.6623,1.672,1.6722,1.6723,1.6724,0,1.5285,1.5309,1.5417,1.5535,1.5624,1.5721,1.5816,1.5873,1.5941,1.6029,1.616,1.6242,1.6406,1.6535,1.6664,1.6729,1.6739,1.6745,1.6772,1.676,1.6732,1.6747,1.6496,1.6739,1.6737,1.6736,1.6736,1.6735,1.5418,1.5505,1.5604,1.5723,1.5799,1.5887,1.5978,1.6041,1.615,1.6285,1.631,1.6449,1.6552,1.6726,1.6794,1.6905,1.6886,1.6925,1.6935,1.6944,1.6947,1.6714,1.6929,1.6928,1.6928,1.6928,1.6928,0,1.5614,1.5678,1.5787,1.5917,1.601,1.6008,1.6113,1.6192,1.6312,1.6406,1.6509,1.6659,1.6784,1.687,1.6997,1.7069,1.7076,1.71,1.7095,1.711,1.6958,1.6921,1.7092,1.7092,1.7091,1.7091,1.7091,1.7091,1.5727,1.5874,1.591,1.6095,1.6159,1.6292,1.6352,1.6433,1.6508,1.6673,1.6775,1.6829,1.6921,1.7054,1.7168,1.719,1.7236,1.726,1.7282,1.7138,1.7121,1.7104,1.707,1.7269,1.727,1.7425,1.7426,1.7427]},{"header":{"parameterUnit":"m.s-1","parameterCategory":1,"la1":30.2991,"la2":30.254,"lo1":-89.0895,"lo2":-89.0444,"dy":0.0017,"dx":0.0017,"nx":28,"ny":28,"refTime":"2024-08-08T03:00:00:Z","depth":0,"parameterNumber":3,"parameterNumberName":"V-component_of_WINDS"},"data":[0,0,0,0,0,0,0,0,0,0,0,0,0,0,0,0,0,0,0,0,0,0,0,0,0,0,0,0,0,0,0,0,0,0,0,0,0,0,0,0,0,0,0,0,0,0,0,0,0,0,0,0,0,0,0,0,0,0,2.8389,2.839,0,2.848,2.8481,2.8482,2.8389,2.8385,2.8382,2.8378,2.8472,2.8478,2.8484,0,0,0,0,0,0,0,0,0,0,0,0,0,2.8133,2.8138,2.8389,2.839,2.8392,2.848,2.8481,2.8482,2.839,2.8385,2.8381,2.8377,2.847,2.8477,2.8484,0,0,0,0,0,0,0,0,0,0,0,0,0,2.8236,2.814,2.8389,2.8356,2.8354,2.8479,2.8481,2.8482,2.8391,2.8385,2.838,2.8375,2.8468,2.8476,2.8485,2.8648,0,0,2.8512,2.8516,0,0,0,0,0,0,0,0,2.823,2.8246,2.836,2.8358,2.8356,2.8417,2.8425,2.8538,2.8392,2.8377,2.8378,2.8372,2.8458,2.8468,2.8497,2.8652,2.8656,2.8513,2.8518,2.8522,2.8524,0,0,0,0,0,0,0,2.8223,2.8241,2.8425,2.8361,2.8359,2.8335,2.8344,2.8446,2.8447,2.8378,2.8371,2.8383,2.8456,2.8488,2.8498,2.8658,2.8512,2.852,2.8526,2.8529,2.8944,2.8949,0,0,0,0,0,0,2.822,2.8236,2.8422,2.8428,2.8279,2.8344,2.8354,2.8403,2.8446,2.8447,2.8388,2.8378,2.8476,2.8488,2.8501,2.8688,2.8522,2.853,2.8535,2.8938,2.8945,2.8951,0,0,0,0,0,0,2.8215,2.8238,2.8419,2.833,2.8351,2.8355,2.8411,2.8408,2.844,2.8453,2.8453,2.842,2.8472,2.8489,2.861,2.8691,2.8534,2.8542,2.8931,2.894,2.8948,2.9069,0,0,0,0,0,0,2.8208,2.8236,2.8299,2.8332,2.8356,2.8528,2.8416,2.8414,2.8455,2.8444,2.8483,2.8485,2.8469,2.8598,2.8619,2.87,2.8549,2.8924,2.8935,2.8945,2.9057,2.908,2.91,0,0,0,0,0,2.8199,2.8332,2.8303,2.8326,2.8435,2.8533,2.8546,2.8525,2.8462,2.8524,2.8531,2.8483,2.8679,2.8611,2.8634,2.8719,2.8919,2.8932,2.8944,2.9048,2.9076,2.9099,0,0,0,0,0,0,2.8311,2.8336,2.8304,2.8452,2.849,2.8517,2.8595,2.8557,2.8615,2.8602,2.8574,2.8583,2.8711,2.8728,2.8651,2.8875,2.8788,2.8806,2.8859,2.8886,2.8906,2.8898,2.8556,0,0,0,0,0,2.8352,2.8429,2.8447,2.8575,2.8596,2.8592,2.8634,2.8614,2.8653,2.867,2.8686,2.8726,2.8795,2.8842,2.8908,2.906,2.9064,2.913,2.9151,2.9168,2.9183,2.9258,2.9285,2.8993,2.8993,2.8993,0,0,2.8439,2.8462,2.8513,2.8598,2.8626,2.8704,2.8607,2.8696,2.8753,2.8683,2.8797,2.8811,2.8853,2.8989,2.9049,2.9006,2.9265,2.9184,2.9198,2.9204,2.9274,2.9302,2.9326,2.9002,2.9,2.8999,0,0,2.8636,2.8664,2.877,2.8799,2.8841,2.8836,2.8862,2.8893,2.8898,2.9012,2.8959,2.9027,2.9149,2.9179,2.921,2.9413,2.9368,2.9435,2.9545,2.9618,2.9641,2.9661,2.9728,2.9753,2.9451,2.9451,2.9451,0,2.8739,2.8855,2.883,2.892,2.8957,2.8895,2.9,2.903,2.9092,2.9117,2.9069,2.9216,2.9241,2.9379,2.9428,2.9457,2.9482,2.9429,2.964,2.966,2.9678,2.9741,2.9767,2.9458,2.9458,2.9457,2.9456,0,2.8976,2.9057,2.9138,2.9196,2.9242,2.934,2.9327,2.9377,2.9352,2.9352,2.9465,2.9492,2.9558,2.959,2.9569,2.9724,2.9695,2.9645,2.9556,2.9714,2.9772,2.9797,2.9469,2.9466,2.9464,2.9462,0,0,2.9247,2.9286,2.9315,2.9338,2.9377,2.9439,2.9532,2.9595,2.9635,2.968,2.9754,2.9856,2.9807,2.9842,2.9823,2.9888,3.0039,2.9828,2.9828,2.9861,3.0205,3.0239,3.0268,3.0011,3.0015,3.0019,3.0199,0,2.944,2.96,2.9578,2.9731,2.9802,2.9743,2.9823,2.9854,2.9856,2.9916,2.9918,2.9988,2.9921,2.9941,3.0003,3.0007,3.0106,2.9995,3.0076,3.0079,3.0063,3.03,3.0338,3.0507,3.0222,3.0226,3.0229,0,2.9688,2.9736,2.9896,2.9918,2.9947,3.002,3.0072,3.0132,3.0165,3.0161,3.0198,3.0165,3.0255,3.0167,3.0287,3.0212,3.0244,3.025,3.0256,3.026,3.0161,3.0305,3.0561,3.0585,3.0266,3.0263,3.0261,0,2.9862,2.9968,3.0075,3.0097,3.0128,3.0178,3.0194,3.0221,3.0258,3.0305,3.0328,3.0385,3.0416,3.0459,3.0441,3.038,3.0564,3.0476,3.056,3.056,3.0598,3.0595,3.0859,3.0627,3.0627,3.0626,3.0626,0,3.0077,3.0176,3.0152,3.0218,3.0325,3.0297,3.0404,3.0411,3.0436,3.0499,3.0454,3.0515,3.0489,3.0548,3.0535,3.0633,3.0649,3.0646,3.064,3.0648,3.0647,3.0665,3.0651,3.0633,3.0632,3.063,3.0629,0,3.0289,3.0278,3.039,3.0407,3.0414,3.0491,3.0506,3.0566,3.0562,3.0644,3.0661,3.0656,3.0722,3.0709,3.0784,3.0774,3.0896,3.0878,3.0884,3.0878,3.096,3.0951,3.1241,3.1275,3.1026,3.1028,3.103,0,3.0425,3.0498,3.0522,3.0561,3.0579,3.0643,3.0679,3.0654,3.0693,3.0733,3.0787,3.0849,3.0896,3.1004,3.1006,3.1061,3.1042,3.1139,3.105,3.1052,3.1036,3.103,3.1035,3.1156,3.1159,3.1161,3.1163,0,3.0666,3.0655,3.0709,3.076,3.0804,3.0843,3.0878,3.0912,3.0889,3.0936,3.1001,3.1038,3.111,3.117,3.122,3.1234,3.1194,3.1192,3.1213,3.1219,3.1216,3.1213,3.0927,3.1184,3.1182,3.1181,3.118,3.1179,3.084,3.0899,3.0924,3.0984,3.1006,3.1039,3.1093,3.1095,3.115,3.1205,3.1187,3.1261,3.1287,3.1349,3.1368,3.1424,3.1387,3.142,3.1427,3.1434,3.1441,3.1211,3.1434,3.1433,3.1432,3.1432,3.1431,0,3.1073,3.1084,3.114,3.1187,3.1233,3.1191,3.1226,3.1267,3.1331,3.1359,3.1405,3.1477,3.1534,3.1539,3.1592,3.1635,3.1617,3.1649,3.1644,3.1646,3.1474,3.1448,3.1662,3.1662,3.1662,3.1662,3.1662,3.1662,3.1199,3.1296,3.1287,3.1393,3.1404,3.1474,3.1497,3.1525,3.1545,3.1628,3.1674,3.1676,3.1693,3.1746,3.1795,3.1795,3.1814,3.1852,3.1844,3.1683,3.1659,3.1637,3.1612,3.1858,3.1858,3.2011,3.2013,3.2014]}]]